ProjectID,Date,Electric Generation,Electric Utility Import,Facility Electric Load
,YYYY-MM-DD,kW,kW,kW
37,2009-03-01,0.0,0.0,0.0
37,2009-03-02,0.0,0.0,0.0
37,2009-03-03,0.0,0.0,0.0
37,2009-03-04,0.0,0.0,0.0
37,2009-03-05,0.0,0.0,0.0
37,2009-03-06,345.4583333333333,831.0,1176.4583333333333
37,2009-03-07,-1.4583333333333333,1063.625,1062.1666666666667
37,2009-03-08,-1.5,982.2083333333334,980.7083333333334
37,2009-03-09,291.5416666666667,1180.2083333333333,1471.75
37,2009-03-10,259.0,1198.2083333333333,1457.2083333333333
37,2009-03-11,305.0416666666667,1200.0416666666667,1505.0833333333335
37,2009-03-12,411.6666666666667,1029.625,1441.2916666666667
37,2009-03-13,446.6666666666667,950.5,1397.1666666666667
37,2009-03-14,105.54166666666667,834.2083333333334,939.75
37,2009-03-15,-1.9996666666666665,908.3333333333334,906.3336666666667
37,2009-03-16,301.1666666666667,1136.2083333333333,1437.375
37,2009-03-17,304.9583333333333,1139.7083333333333,1444.6666666666665
37,2009-03-18,308.75,1136.3333333333333,1445.0833333333333
37,2009-03-19,371.6666666666667,1076.5,1448.1666666666667
37,2009-03-20,429.2916666666667,972.2083333333334,1401.5
37,2009-03-21,219.45833333333334,685.625,905.0833333333334
37,2009-03-22,153.08333333333334,744.0833333333334,897.1666666666667
37,2009-03-23,399.7916666666667,988.1666666666666,1387.9583333333333
37,2009-03-24,429.3333333333333,984.5416666666666,1413.875
37,2009-03-25,355.99966666666666,1015.9583333333334,1371.958
37,2009-03-26,330.7083333333333,1091.75,1422.4583333333333
37,2009-03-27,267.12533333333334,1090.2083333333333,1357.3336666666667
37,2009-03-28,-1.7916666666666667,1007.9166666666666,1006.125
37,2009-03-29,-2.041333333333333,939.5416666666666,937.5003333333333
37,2009-03-30,227.458,1116.9583333333333,1344.4163333333333
37,2009-03-31,306.625,1131.0833333333333,1437.7083333333333
37,2009-04-01,260.9166666666667,1182.7083333333333,1443.625
37,2009-04-02,245.54166666666666,1261.2916666666667,1506.8333333333335
37,2009-04-03,286.042,1185.3333333333333,1471.3753333333332
37,2009-04-04,76.833,949.75,1026.583
37,2009-04-05,-1.6666666666666667,914.9166666666666,913.25
37,2009-04-06,371.8333333333333,1076.5833333333333,1448.4166666666665
37,2009-04-07,366.875,1064.5416666666667,1431.4166666666667
37,2009-04-08,375.4583333333333,1046.0416666666667,1421.5
37,2009-04-09,327.625,1104.6666666666667,1432.2916666666667
37,2009-04-10,361.0416666666667,907.4583333333334,1268.5
37,2009-04-11,-2.1666666666666665,993.4583333333334,991.2916666666667
37,2009-04-12,-2.5,952.4166666666666,949.9166666666666
37,2009-04-13,330.7916666666667,1078.125,1408.9166666666667
37,2009-04-14,333.25,1100.75,1434.0
37,2009-04-15,383.0833333333333,1028.7916666666667,1411.875
37,2009-04-16,351.91633333333334,1068.125,1420.0413333333333
37,2009-04-17,362.7916666666667,1123.5416666666667,1486.3333333333335
37,2009-04-18,-1.4166666666666667,1125.0,1123.5833333333333
37,2009-04-19,-1.625,971.6666666666666,970.0416666666666
37,2009-04-20,306.75,1136.375,1443.125
37,2009-04-21,378.625,1123.0833333333333,1501.7083333333333
37,2009-04-22,440.458,1008.5,1448.958
37,2009-04-23,443.83366666666666,997.2083333333334,1441.042
37,2009-04-24,383.8333333333333,1079.0,1462.8333333333333
37,2009-04-25,-1.3333333333333333,1131.3333333333333,1130.0
37,2009-04-26,-1.4166666666666667,1031.4166666666667,1030.0
37,2009-04-27,334.70866666666666,1423.7083333333333,1758.417
37,2009-04-28,318.4166666666667,1426.2916666666667,1744.7083333333335
37,2009-04-29,386.75,1111.875,1498.625
37,2009-04-30,395.25033333333334,1098.4583333333333,1493.7086666666667
37,2009-05-01,401.333,1132.5,1533.833
37,2009-05-02,-1.4166666666666667,1119.5,1118.0833333333333
37,2009-05-03,-1.4996666666666665,1004.9583333333334,1003.4586666666667
37,2009-05-04,433.958,1030.1666666666667,1464.1246666666668
37,2009-05-05,446.708,1040.3333333333333,1487.0413333333333
37,2009-05-06,438.49966666666666,1055.5,1493.9996666666666
37,2009-05-07,420.70866666666666,1168.75,1589.4586666666667
37,2009-05-08,422.7083333333333,1158.9583333333333,1581.6666666666665
37,2009-05-09,-1.25,1136.7083333333333,1135.4583333333333
37,2009-05-10,-1.4166666666666667,1009.6666666666666,1008.25
37,2009-05-11,357.625,1137.25,1494.875
37,2009-05-12,389.37466666666666,1147.125,1536.4996666666666
37,2009-05-13,407.75033333333334,1169.375,1577.1253333333334
37,2009-05-14,382.458,1183.7083333333333,1566.1663333333333
37,2009-05-15,367.08366666666666,1210.0416666666667,1577.1253333333334
37,2009-05-16,-1.3333333333333333,1134.5416666666667,1133.2083333333335
37,2009-05-17,-1.625,981.0833333333334,979.4583333333334
37,2009-05-18,387.8333333333333,1033.2916666666667,1421.125
37,2009-05-19,337.0416666666667,1159.9583333333333,1497.0
37,2009-05-20,317.0,1243.7083333333333,1560.7083333333333
37,2009-05-21,328.2083333333333,1267.9166666666667,1596.125
37,2009-05-22,276.625,1262.4166666666667,1539.0416666666667
37,2009-05-23,-1.2913333333333334,1110.125,1108.8336666666667
37,2009-05-24,-1.3336666666666668,1013.875,1012.5413333333333
37,2009-05-25,-1.2916666666666667,1139.9583333333333,1138.6666666666665
37,2009-05-26,322.5416666666667,1265.2083333333333,1587.75
37,2009-05-27,239.54133333333334,1320.25,1559.7913333333333
37,2009-05-28,300.334,1291.375,1591.709
37,2009-05-29,262.74966666666666,1314.9583333333333,1577.7079999999999
37,2009-05-30,10.166333333333332,1191.375,1201.5413333333333
37,2009-05-31,0.0,1034.4583333333333,1034.4583333333333
37,2009-06-01,360.3333333333333,1230.5,1590.8333333333333
37,2009-06-02,260.0416666666667,1383.9583333333333,1644.0
37,2009-06-03,310.4166666666667,1317.0833333333333,1627.5
37,2009-06-04,303.9166666666667,1282.0833333333333,1586.0
37,2009-06-05,319.5833333333333,1238.0416666666667,1557.625
37,2009-06-06,0.0,1155.2083333333333,1155.2083333333333
37,2009-06-07,0.0,1042.0,1042.0
37,2009-06-08,242.91666666666666,1410.0,1652.9166666666667
37,2009-06-09,269.75,1374.0208333333333,1643.7708333333333
37,2009-06-10,309.0833333333333,1317.8958333333333,1626.9791666666665
37,2009-06-11,312.7916666666667,1302.1666666666667,1614.9583333333335
37,2009-06-12,248.875,1362.4166666666667,1611.2916666666667
37,2009-06-13,1.5833333333333333,1210.125,1211.7083333333333
37,2009-06-14,0.0,1070.0,1070.0
37,2009-06-15,303.917,1329.3333333333333,1633.2503333333332
37,2009-06-16,314.87466666666666,1302.7083333333333,1617.5829999999999
37,2009-06-17,316.375,1289.5416666666667,1605.9166666666667
37,2009-06-18,274.2760416666667,1353.0416666666667,1627.3177083333335
37,2009-06-19,253.86979166666666,1360.9583333333333,1614.828125
37,2009-06-20,0.0,1211.3125,1211.3125
37,2009-06-21,2.375,1066.1041666666667,1068.4791666666667
37,2009-06-22,227.703125,1419.0833333333333,1646.7864583333333
37,2009-06-23,249.43229166666666,1399.4166666666667,1648.8489583333335
37,2009-06-24,254.13020833333334,1425.4166666666667,1679.546875
37,2009-06-25,245.04166666666666,1424.1666666666667,1669.2083333333335
37,2009-06-26,210.52083333333334,1452.0833333333333,1662.6041666666665
37,2009-06-27,0.0,1230.0416666666667,1230.0416666666667
37,2009-06-28,0.0,1121.1666666666667,1121.1666666666667
37,2009-06-29,230.32291666666666,1474.375,1704.6979166666667
37,2009-06-30,226.54166666666666,1481.6666666666667,1708.2083333333335
37,2009-07-01,274.75,1414.5,1689.25
37,2009-07-02,257.4583333333333,1384.8333333333333,1642.2916666666665
37,2009-07-03,283.5833333333333,913.8333333333334,1197.4166666666667
37,2009-07-04,0.0,1084.125,1084.125
37,2009-07-05,0.0,1081.25,1081.25
37,2009-07-06,274.6666666666667,1415.0,1689.6666666666667
37,2009-07-07,208.54166666666666,1479.7916666666667,1688.3333333333335
37,2009-07-08,232.29166666666666,1414.1666666666667,1646.4583333333335
37,2009-07-09,258.5833333333333,1392.8333333333333,1651.4166666666665
37,2009-07-10,254.29166666666666,1392.4166666666667,1646.7083333333335
37,2009-07-11,0.0,1229.5833333333333,1229.5833333333333
37,2009-07-12,0.0,1128.5416666666667,1128.5416666666667
37,2009-07-13,203.70833333333334,1478.625,1682.3333333333333
37,2009-07-14,215.78125,1439.8333333333333,1655.6145833333333
37,2009-07-15,207.11458333333334,1470.0833333333333,1677.1979166666665
37,2009-07-16,206.28645833333334,1537.875,1744.1614583333333
37,2009-07-17,200.921875,1500.7916666666667,1701.7135416666667
37,2009-07-18,0.0,1280.6666666666667,1280.6666666666667
37,2009-07-19,0.0,1129.4166666666667,1129.4166666666667
37,2009-07-20,210.25,1509.9166666666667,1720.1666666666667
37,2009-07-21,220.16666666666666,1479.1666666666667,1699.3333333333335
37,2009-07-22,209.66145833333334,1517.3333333333333,1726.9947916666665
37,2009-07-23,216.05208333333334,1487.1666666666667,1703.21875
37,2009-07-24,196.53645833333334,1442.375,1638.9114583333333
37,2009-07-25,0.0,1284.8333333333333,1284.8333333333333
37,2009-07-26,0.0,1173.5416666666667,1173.5416666666667
37,2009-07-27,161.80175,1680.4166666666667,1842.2184166666668
37,2009-07-28,165.61979166666666,1683.5416666666667,1849.1614583333335
37,2009-07-29,161.66666666666666,1667.8333333333333,1829.5
37,2009-07-30,159.83333333333334,1635.7083333333333,1795.5416666666665
37,2009-07-31,137.66666666666666,1597.3333333333333,1735.0
37,2009-08-01,0.0,1263.7083333333333,1263.7083333333333
37,2009-08-02,0.0,1142.5833333333333,1142.5833333333333
37,2009-08-03,99.83333333333333,1710.9583333333333,1810.7916666666665
37,2009-08-04,118.125,1681.75,1799.875
37,2009-08-05,131.25,1679.4166666666667,1810.6666666666667
37,2009-08-06,215.91666666666666,1473.875,1689.7916666666667
37,2009-08-07,215.375,1403.4166666666667,1618.7916666666667
37,2009-08-08,0.0,1158.1666666666667,1158.1666666666667
37,2009-08-09,0.0,1101.1666666666667,1101.1666666666667
37,2009-08-10,142.54166666666666,1724.7916666666667,1867.3333333333335
37,2009-08-11,192.16666666666666,1685.2916666666667,1877.4583333333335
37,2009-08-12,326.0,1496.7083333333333,1822.7083333333333
37,2009-08-13,524.7083333333334,1183.9166666666667,1708.625
37,2009-08-14,590.375,1058.0520833333333,1648.4270833333333
37,2009-08-15,453.9583333333333,770.7708333333334,1224.7291666666667
37,2009-08-16,436.7083333333333,713.25,1149.9583333333333
37,2009-08-17,538.3333333333334,1354.8020833333333,1893.1354166666665
37,2009-08-18,586.875,1290.1354166666667,1877.0104166666667
37,2009-08-19,588.9583333333334,1256.6145833333333,1845.5729166666665
37,2009-08-20,548.4166666666666,1327.125,1875.5416666666665
37,2009-08-21,565.0,1273.2083333333333,1838.2083333333333
37,2009-08-22,466.7916666666667,780.9166666666666,1247.7083333333333
37,2009-08-23,445.6666666666667,726.5,1172.1666666666667
37,2009-08-24,496.3333333333333,1297.7916666666667,1794.125
37,2009-08-25,448.0833333333333,1316.25,1764.3333333333333
37,2009-08-26,463.3333333333333,1291.2083333333333,1754.5416666666665
37,2009-08-27,555.0416666666666,1094.5416666666667,1649.5833333333335
37,2009-08-28,550.625,1043.7083333333333,1594.3333333333333
37,2009-08-29,457.2916666666667,620.5416666666666,1077.8333333333333
37,2009-08-30,438.2916666666667,673.125,1111.4166666666667
37,2009-08-31,472.7916666666667,1178.8333333333333,1651.625
37,2009-09-01,476.20866666666666,1159.0833333333333,1635.292
37,2009-09-02,445.208,1189.5833333333333,1634.7913333333333
37,2009-09-03,384.25,1230.7916666666667,1615.0416666666667
37,2009-09-04,355.7916666666667,1102.125,1457.9166666666667
37,2009-09-05,311.0416666666667,867.75,1178.7916666666667
37,2009-09-06,315.16633333333334,743.9583333333334,1059.1246666666666
37,2009-09-07,362.75033333333334,791.8333333333334,1154.5836666666667
37,2009-09-08,315.2916666666667,1356.2083333333333,1671.5
37,2009-09-09,297.2083333333333,1382.6666666666667,1679.875
37,2009-09-10,385.1666666666667,1254.5416666666667,1639.7083333333335
37,2009-09-11,430.25033333333334,980.5416666666666,1410.792
37,2009-09-12,475.37466666666666,677.4583333333334,1152.833
37,2009-09-13,495.375,587.75,1083.125
37,2009-09-14,539.3333333333334,416.7083333333333,956.0416666666667
37,2009-09-15,572.583,484.25,1056.833
37,2009-09-16,603.6253333333333,488.875,1092.5003333333334
37,2009-09-17,630.4166666666666,500.875,1131.2916666666665
37,2009-09-18,587.625,491.875,1079.5
37,2009-09-19,510.4166666666667,638.4583333333334,1148.875
37,2009-09-20,504.5,576.0833333333334,1080.5833333333335
37,2009-09-21,591.4583333333334,482.625,1074.0833333333335
37,2009-09-22,510.625,489.5833333333333,1000.2083333333333
37,2009-09-23,506.625,453.5,960.125
37,2009-09-24,560.875,1105.875,1666.75
37,2009-09-25,618.7083333333334,992.75,1611.4583333333335
37,2009-09-26,532.0416666666666,586.75,1118.7916666666665
37,2009-09-27,318.3333333333333,320.5416666666667,638.875
37,2009-09-28,428.62466666666666,967.75,1396.3746666666666
37,2009-09-29,509.20866666666666,1090.4583333333333,1599.667
37,2009-09-30,621.6663333333333,942.0,1563.6663333333333
37,2009-10-01,61.041666666666664,48.041666666666664,109.08333333333333
37,2009-10-02,581.3333333333334,809.9583333333334,1391.2916666666667
37,2009-10-03,57.791666666666664,52.5,110.29166666666666
37,2009-10-04,437.125,520.375,957.5
37,2009-10-05,616.8333333333334,977.625,1594.4583333333335
37,2009-10-06,613.1666666666666,957.9166666666666,1571.0833333333333
37,2009-10-07,587.0833333333334,1026.0,1613.0833333333335
37,2009-10-08,613.5416666666666,940.1666666666666,1553.7083333333333
37,2009-10-09,53.583666666666666,54.0,107.58366666666666
37,2009-10-10,459.708,559.2083333333334,1018.9163333333333
37,2009-10-11,526.1666666666666,480.9583333333333,1007.125
37,2009-10-12,662.0833333333334,752.5416666666666,1414.625
37,2009-10-13,562.2916666666666,991.5416666666666,1553.8333333333333
37,2009-10-14,654.5833333333334,811.625,1466.2083333333335
37,2009-10-15,570.4583333333334,917.3333333333334,1487.7916666666667
37,2009-10-16,38.291666666666664,77.83333333333333,116.125
37,2009-10-17,281.0416666666667,688.9583333333334,970.0
37,2009-10-18,350.7083333333333,661.375,1012.0833333333333
37,2009-10-19,486.4166666666667,981.25,1467.6666666666667
37,2009-10-20,565.9166666666666,963.0416666666666,1528.9583333333333
37,2009-10-21,603.2083333333334,999.4166666666666,1602.625
37,2009-10-22,565.4166666666666,1040.75,1606.1666666666665
37,2009-10-23,616.625,922.125,1538.75
37,2009-10-24,503.3333333333333,637.9583333333334,1141.2916666666667
37,2009-10-25,523.0,510.2499583333333,1033.2499583333333
37,2009-10-26,533.5,999.9167083333333,1533.4167083333332
37,2009-10-27,50.458333333333336,44.958416666666665,95.41675000000001
37,2009-10-28,408.04133333333334,1030.875,1438.9163333333333
37,2009-10-29,541.042,964.375,1505.417
37,2009-10-30,603.0416666666666,885.4166666666666,1488.4583333333333
37,2009-10-31,495.625,546.9166666666666,1042.5416666666665
37,2009-11-01,526.3336666666667,507.375,1033.7086666666667
37,2009-11-02,592.0413333333333,903.0,1495.0413333333333
37,2009-11-03,595.0416666666666,893.792,1488.8336666666667
37,2009-11-04,660.4166666666666,824.0833333333334,1484.5
37,2009-11-05,657.292,825.2086666666668,1482.5006666666668
37,2009-11-06,667.458,775.7916666666666,1443.2496666666666
37,2009-11-07,560.3333333333334,466.5416666666667,1026.875
37,2009-11-08,535.6663333333333,425.0833333333333,960.7496666666666
37,2009-11-09,617.0833333333334,961.1666666666666,1578.25
37,2009-11-10,612.417,990.9166666666666,1603.3336666666667
37,2009-11-11,640.5413333333333,853.7916666666666,1494.333
37,2009-11-12,645.0003333333333,878.8333333333334,1523.8336666666667
37,2009-11-13,618.9166666666666,908.9166666666666,1527.8333333333333
37,2009-11-14,436.333,715.25,1151.583
37,2009-11-15,349.459,709.7083333333334,1059.1673333333333
37,2009-11-16,432.79133333333334,1101.3333333333333,1534.1246666666666
37,2009-11-17,466.5833333333333,1052.5833333333333,1519.1666666666665
37,2009-11-18,474.4166666666667,1059.0416666666667,1533.4583333333335
37,2009-11-19,503.7083333333333,1042.7916666666667,1546.5
37,2009-11-20,525.0833333333334,1028.9166666666667,1554.0
37,2009-11-21,363.5416666666667,696.4166666666666,1059.9583333333333
37,2009-11-22,477.625,509.7083333333333,987.3333333333333
37,2009-11-23,542.5833333333334,953.5416666666666,1496.125
37,2009-11-24,557.4166666666666,988.1667083333333,1545.583375
37,2009-11-25,476.75,1015.5,1492.25
37,2009-11-26,0.0,1077.625,1077.625
37,2009-11-27,318.75,942.25,1261.0
37,2009-11-28,0.0,1061.25,1061.25
37,2009-11-29,0.0,974.2916666666666,974.2916666666666
37,2009-11-30,302.0416666666667,1207.0,1509.0416666666667
37,2009-12-01,292.5833333333333,1194.8333333333333,1487.4166666666665
37,2009-12-02,367.375,1169.875,1537.25
37,2009-12-03,327.0,1291.625,1618.625
37,2009-12-04,370.5416666666667,1131.5,1502.0416666666667
37,2009-12-05,194.16666666666666,896.0,1090.1666666666667
37,2009-12-06,0.0,1012.3333333333334,1012.3333333333334
37,2009-12-07,371.0,1129.5833333333333,1500.5833333333333
37,2009-12-08,438.3333333333333,1078.125,1516.4583333333333
37,2009-12-09,445.0,1065.25,1510.25
37,2009-12-10,412.7083333333333,1098.9583333333333,1511.6666666666665
37,2009-12-11,404.9166666666667,1010.625,1415.5416666666667
37,2009-12-12,220.625,861.5,1082.125
37,2009-12-13,212.29166666666666,804.0,1016.2916666666666
37,2009-12-14,455.9583333333333,1051.0416666666667,1507.0
37,2009-12-15,399.2916666666667,1140.6666666666667,1539.9583333333335
37,2009-12-16,447.5,1030.7083333333333,1478.2083333333333
37,2009-12-17,450.1666666666667,1021.7916666666666,1471.9583333333333
37,2009-12-18,395.1666666666667,1047.9166666666667,1443.0833333333335
37,2009-12-19,125.41666666666667,985.25,1110.6666666666667
37,2009-12-20,143.41666666666666,866.8333333333334,1010.25
37,2009-12-21,424.5833333333333,1010.75,1435.3333333333333
37,2009-12-22,494.875,955.375,1450.25
37,2009-12-23,587.6666666666666,821.3333333333334,1409.0
37,2009-12-24,614.4166666666666,675.0416666666666,1289.4583333333333
37,2009-12-25,176.58333333333334,866.3333333333334,1042.9166666666667
37,2009-12-26,105.79166666666667,882.9583333333334,988.75
37,2009-12-27,0.0,998.75,998.75
37,2009-12-28,384.7916666666667,993.6666666666666,1378.4583333333333
37,2009-12-29,410.5,970.25,1380.75
37,2009-12-30,410.7916666666667,960.7083333333334,1371.5
37,2009-12-31,389.125,875.3333333333334,1264.4583333333335
37,2010-01-01,173.29166666666666,866.6666666666666,1039.9583333333333
37,2010-01-02,170.79166666666666,900.9166666666666,1071.7083333333333
37,2010-01-03,169.83333333333334,861.1666666666666,1031.0
37,2010-01-04,400.9166666666667,1029.7083333333333,1430.625
37,2010-01-05,375.1666666666667,1064.125,1439.2916666666667
37,2010-01-06,410.7083333333333,1047.5416666666667,1458.25
37,2010-01-07,407.3333333333333,1062.1666666666667,1469.5
37,2010-01-08,344.875,1082.8020833333333,1427.6770833333333
37,2010-01-09,141.0,910.8958333333334,1051.8958333333335
37,2010-01-10,2.25,1036.2083333333333,1038.4583333333333
37,2010-01-11,350.4583333333333,1075.75,1426.2083333333333
37,2010-01-12,368.25,752.125,1120.375
37,2010-01-13,345.9583333333333,1063.6979166666667,1409.65625
37,2010-01-14,351.5416666666667,1082.1666666666667,1433.7083333333335
37,2010-01-15,334.5833333333333,1064.0416666666667,1398.625
37,2010-01-16,55.416666666666664,967.9166666666666,1023.3333333333333
37,2010-01-17,-1.6666666666666667,943.75,942.0833333333334
37,2010-01-18,339.0833333333333,883.8854166666666,1222.96875
37,2010-01-19,286.2083333333333,1161.2708333333333,1447.4791666666665
37,2010-01-20,328.4166666666667,1105.4270833333333,1433.84375
37,2010-01-21,360.2083333333333,1071.1354166666667,1431.34375
37,2010-01-22,339.9166666666667,1063.4895833333333,1403.40625
37,2010-01-23,95.33266666666667,948.71875,1044.0514166666667
37,2010-01-24,-1.6243333333333334,970.7291666666666,969.1048333333333
37,2010-01-25,347.8333333333333,1112.4583333333333,1460.2916666666665
37,2010-01-26,397.8333333333333,1035.59375,1433.4270833333333
37,2010-01-27,391.25,1016.125,1407.375
37,2010-01-28,399.0416666666667,1010.5416666666666,1409.5833333333333
37,2010-01-29,406.0,984.9166666666666,1390.9166666666665
37,2010-01-30,145.95833333333334,930.9583333333334,1076.9166666666667
37,2010-01-31,75.66666666666667,935.25,1010.9166666666666
37,2010-02-01,425.8229166666667,984.0,1409.8229166666667
37,2010-02-02,428.1979166666667,988.5833333333334,1416.78125
37,2010-02-03,427.0885416666667,989.8333333333334,1416.921875
37,2010-02-04,429.8333333333333,980.2083333333334,1410.0416666666667
37,2010-02-05,412.7552083333333,991.4166666666666,1404.171875
37,2010-02-06,194.26041666666666,826.4583333333334,1020.71875
37,2010-02-07,72.83333333333333,888.4166666666666,961.25
37,2010-02-08,379.2454583333333,1014.875,1394.1204583333333
37,2010-02-09,428.4576666666667,988.75,1417.2076666666667
37,2010-02-10,443.8385416666667,882.625,1326.4635416666667
37,2010-02-11,446.5364583333333,942.9583333333334,1389.4947916666667
37,2010-02-12,478.75,889.375,1368.125
37,2010-02-13,250.79166666666666,784.0416666666666,1034.8333333333333
37,2010-02-14,69.95833333333333,876.4583333333334,946.4166666666667
37,2010-02-15,425.5416666666667,761.0833333333334,1186.625
37,2010-02-16,432.125,1034.75,1466.875
37,2010-02-17,440.5833333333333,984.0416666666666,1424.625
37,2010-02-18,426.5,985.5833333333334,1412.0833333333335
37,2010-02-19,419.8333333333333,980.9166666666666,1400.75
37,2010-02-20,150.671875,899.2916666666666,1049.9635416666665
37,2010-02-21,33.46875,957.125,990.59375
37,2010-02-22,389.25,1028.375,1417.625
37,2010-02-23,396.9947916666667,1019.9583333333334,1416.953125
37,2010-02-24,342.3333333333333,1083.25,1425.5833333333333
37,2010-02-25,395.2239583333333,1021.875,1417.0989583333333
37,2010-02-26,415.515625,866.0833333333334,1281.5989583333335
37,2010-02-27,33.875,877.8333333333334,911.7083333333334
37,2010-02-28,-1.7083333333333333,917.25,915.5416666666666
37,2010-03-01,395.4583333333333,1001.6666666666666,1397.125
37,2010-03-02,399.2916666666667,1028.1666666666667,1427.4583333333335
37,2010-03-03,442.0416666666667,982.2916666666666,1424.3333333333333
37,2010-03-04,445.0,971.6666666666666,1416.6666666666665
37,2010-03-05,429.5052083333333,954.1666666666666,1383.671875
37,2010-03-06,145.83333333333334,854.25,1000.0833333333334
37,2010-03-07,-1.4166666666666667,963.9166666666666,962.5
37,2010-03-08,385.5,1030.1666666666667,1415.6666666666667
37,2010-03-09,385.125,1071.1666666666667,1456.2916666666667
37,2010-03-10,362.875,1110.6666666666667,1473.5416666666667
37,2010-03-11,339.7916666666667,1139.2083333333333,1479.0
37,2010-03-12,333.125,1090.5,1423.625
37,2010-03-13,84.33333333333333,916.5833333333334,1000.9166666666667
37,2010-03-14,-1.75,994.2916666666666,992.5416666666666
37,2010-03-15,350.625,1076.5416666666667,1427.1666666666667
37,2010-03-16,332.6666666666667,1158.25,1490.9166666666667
37,2010-03-17,283.6666666666667,1189.1666666666667,1472.8333333333335
37,2010-03-18,267.6666666666667,1253.4166666666667,1521.0833333333335
37,2010-03-19,264.5,1233.9166666666667,1498.4166666666667
37,2010-03-20,-0.875,992.7916666666666,991.9166666666666
37,2010-03-21,-0.9166666666666666,1007.5,1006.5833333333334
37,2010-03-22,270.25,1205.5833333333333,1475.8333333333333
37,2010-03-23,333.75,1161.2083333333333,1494.9583333333333
37,2010-03-24,328.5416666666667,1172.625,1501.1666666666667
37,2010-03-25,325.0,1140.8333333333333,1465.8333333333333
37,2010-03-26,341.75,1046.7083333333333,1388.4583333333333
37,2010-03-27,102.70833333333333,916.5416666666666,1019.25
37,2010-03-28,-1.625,983.4583333333334,981.8333333333334
37,2010-03-29,330.125,1110.0,1440.125
37,2010-03-30,339.5,1069.625,1409.125
37,2010-03-31,330.9166666666667,1116.2916666666667,1447.2083333333335
37,2010-04-01,412.1666666666667,1064.7083333333333,1476.875
37,2010-04-02,439.2083333333333,923.8333333333334,1363.0416666666667
37,2010-04-03,31.708333333333332,1023.7916666666666,1055.5